| time (UTC) | temp F | wind direction | speed MPH | gust MPH | rain 1hr in | rain 24hr in | rain mn in | humidity % | barometer mb |
| 20260904191617 | 72 | 266 | 0.0 | 2.0 | 0.00 | 0.00 | 0.00 | 77 | 1015.2 |
| 20260904190637 | 72 | 340 | 2.0 | 3.0 | 0.00 | 0.00 | 0.00 | 75 | 1015.3 |
| 20260904185618 | 72 | 324 | 1.0 | 3.0 | 0.00 | 0.00 | 0.00 | 75 | 1015.2 |
| 20260904184617 | 71 | 284 | 0.0 | 1.0 | 0.00 | 0.00 | 0.00 | 75 | 1015.1 |
| 20260904183617 | 70 | 275 | 0.0 | 1.0 | 0.00 | 0.00 | 0.00 | 72 | 1015.0 |
| 20260904182617 | 69 | 5 | 0.0 | 1.0 | 0.00 | 0.00 | 0.00 | 78 | 1015.0 |
| 20260904181618 | 67 | 0.0 | 0.0 | 0.00 | 0.00 | 0.00 | 77 | 1015.1 | |
| 20260904180618 | 65 | 0.0 | 0.0 | 0.00 | 0.00 | 0.00 | 77 | 1014.9 | |
| 20260904175657 | 64 | 113 | 0.0 | 2.0 | 0.00 | 0.00 | 0.00 | 75 | 1015.0 |
| 20260904174618 | 63 | 0.0 | 2.0 | 0.00 | 0.00 | 0.00 | 75 | 1014.9 | |
| 20260904173617 | 62 | 121 | 0.0 | 3.0 | 0.00 | 0.00 | 0.00 | 74 | 1014.8 |
| 20260904172618 | 62 | 100 | 2.0 | 4.0 | 0.00 | 0.00 | 0.00 | 74 | 1014.7 |
| 20260904171617 | 61 | 62 | 1.0 | 2.0 | 0.00 | 0.00 | 0.00 | 78 | 1014.7 |
| 20260904170617 | 60 | 86 | 1.0 | 3.0 | 0.00 | 0.00 | 0.00 | 73 | 1014.7 |
| 20260904165617 | 60 | 113 | 2.0 | 3.0 | 0.00 | 0.00 | 0.00 | 76 | 1014.4 |
| 20260904164658 | 60 | 107 | 2.0 | 3.0 | 0.00 | 0.00 | 0.00 | 75 | 1014.1 |
| 20260904163617 | 60 | 110 | 2.0 | 3.0 | 0.00 | 0.00 | 0.00 | 74 | 1014.3 |
| 20260904162618 | 59 | 70 | 1.0 | 2.0 | 0.00 | 0.00 | 0.00 | 73 | 1014.1 |
| 20260904161637 | 60 | 94 | 1.0 | 2.0 | 0.00 | 0.00 | 0.00 | 73 | 1014.2 |
| 20260904160618 | 60 | 86 | 1.0 | 2.0 | 0.00 | 0.00 | 0.00 | 72 | 1014.3 |
| 20260904155617 | 59 | 90 | 2.0 | 3.0 | 0.00 | 0.00 | 0.00 | 73 | 1014.2 |
| 20260904154618 | 59 | 105 | 3.0 | 3.0 | 0.00 | 0.00 | 0.00 | 72 | 1014.4 |
| 20260904153637 | 60 | 127 | 2.0 | 3.0 | 0.00 | 0.00 | 0.00 | 76 | 1014.1 |
| 20260904152617 | 60 | 110 | 2.0 | 3.0 | 0.00 | 0.00 | 0.00 | 76 | 1014.2 |
| 20260904151637 | 61 | 95 | 1.0 | 2.0 | 0.00 | 0.00 | 0.00 | 69 | 1014.1 |
| 20260904150617 | 61 | 133 | 2.0 | 3.0 | 0.00 | 0.00 | 0.00 | 72 | 1014.2 |
| 20260904145617 | 62 | 100 | 3.0 | 4.0 | 0.00 | 0.00 | 0.00 | 71 | 1014.2 |
| 20260904144618 | 62 | 104 | 2.0 | 3.0 | 0.00 | 0.00 | 0.00 | 70 | 1014.3 |
| 20260904143617 | 63 | 115 | 2.0 | 3.0 | 0.00 | 0.00 | 0.00 | 70 | 1014.3 |
| 20260904142617 | 63 | 120 | 2.0 | 3.0 | 0.00 | 0.00 | 0.00 | 65 | 1014.3 |
| 20260904141617 | 63 | 111 | 3.0 | 4.0 | 0.00 | 0.00 | 0.00 | 64 | 1014.2 |
| 20260904140618 | 61 | 100 | 2.0 | 3.0 | 0.00 | 0.00 | 0.00 | 68 | 1014.0 |
| 20260904135618 | 61 | 103 | 1.0 | 3.0 | 0.00 | 0.00 | 0.00 | 71 | 1014.3 |
| 20260904134617 | 60 | 113 | 1.0 | 3.0 | 0.00 | 0.00 | 0.00 | 71 | 1014.3 |
| 20260904133638 | 60 | 104 | 2.0 | 3.0 | 0.00 | 0.00 | 0.00 | 75 | 1014.1 |
| 20260904132618 | 60 | 103 | 2.0 | 3.0 | 0.00 | 0.00 | 0.00 | 72 | 1014.0 |
| 20260904131617 | 60 | 108 | 2.0 | 3.0 | 0.00 | 0.00 | 0.00 | 74 | 1014.1 |
| 20260904130617 | 60 | 94 | 2.0 | 3.0 | 0.00 | 0.00 | 0.00 | 67 | 1014.1 |
| 20260904125617 | 60 | 118 | 3.0 | 4.0 | 0.00 | 0.00 | 0.00 | 75 | 1014.1 |
| 20260904124618 | 60 | 103 | 3.0 | 4.0 | 0.00 | 0.00 | 0.00 | 72 | 1014.2 |
| 20260904123617 | 59 | 90 | 2.0 | 3.0 | 0.00 | 0.00 | 0.00 | 78 | 1014.3 |
| 20260904122617 | 59 | 109 | 3.0 | 4.0 | 0.00 | 0.00 | 0.00 | 82 | 1014.4 |
| 20260904121617 | 59 | 106 | 2.0 | 3.0 | 0.00 | 0.00 | 0.00 | 81 | 1014.6 |
| 20260904120657 | 60 | 102 | 2.0 | 2.0 | 0.00 | 0.00 | 0.00 | 81 | 1014.7 |
| 20260904115617 | 60 | 98 | 2.0 | 3.0 | 0.00 | 0.00 | 0.00 | 83 | 1014.7 |
| 20260904114618 | 59 | 104 | 2.0 | 3.0 | 0.00 | 0.00 | 0.00 | 81 | 1014.8 |
| 20260904113618 | 59 | 126 | 1.0 | 3.0 | 0.00 | 0.00 | 0.00 | 81 | 1014.9 |
| 20260904112618 | 59 | 109 | 3.0 | 4.0 | 0.00 | 0.00 | 0.00 | 82 | 1015.1 |
| 20260904111617 | 59 | 124 | 2.0 | 3.0 | 0.00 | 0.00 | 0.00 | 81 | 1015.2 |
| 20260904110637 | 59 | 91 | 1.0 | 2.0 | 0.00 | 0.00 | 0.00 | 82 | 1015.2 |
| 20260904105618 | 59 | 99 | 2.0 | 3.0 | 0.00 | 0.00 | 0.00 | 81 | 1015.4 |
| 20260904104618 | 59 | 98 | 2.0 | 3.0 | 0.00 | 0.00 | 0.00 | 85 | 1015.6 |
| 20260904103617 | 60 | 114 | 2.0 | 4.0 | 0.00 | 0.00 | 0.00 | 84 | 1015.5 |
| 20260904102617 | 60 | 111 | 2.0 | 2.0 | 0.00 | 0.00 | 0.00 | 85 | 1015.8 |
| 20260904101637 | 61 | 106 | 2.0 | 3.0 | 0.00 | 0.00 | 0.00 | 83 | 1015.9 |
| 20260904100658 | 61 | 89 | 1.0 | 2.0 | 0.00 | 0.00 | 0.00 | 83 | 1016.0 |
| 20260904095618 | 61 | 102 | 3.0 | 3.0 | 0.00 | 0.00 | 0.00 | 84 | 1016.1 |
| 20260904094617 | 60 | 90 | 2.0 | 3.0 | 0.00 | 0.00 | 0.00 | 81 | 1016.2 |
| 20260904093617 | 60 | 102 | 2.0 | 3.0 | 0.00 | 0.00 | 0.00 | 85 | 1016.1 |
| 20260904092617 | 60 | 101 | 2.0 | 3.0 | 0.00 | 0.00 | 0.00 | 85 | 1016.2 |
| 20260904091617 | 60 | 112 | 2.0 | 3.0 | 0.00 | 0.00 | 0.00 | 87 | 1016.3 |
| 20260904090618 | 61 | 107 | 2.0 | 3.0 | 0.00 | 0.00 | 0.00 | 86 | 1016.4 |
| 20260904085618 | 62 | 95 | 1.0 | 2.0 | 0.00 | 0.00 | 0.00 | 87 | 1016.3 |
| 20260904084637 | 63 | 119 | 1.0 | 3.0 | 0.00 | 0.00 | 0.00 | 89 | 1016.5 |
| 20260904083617 | 63 | 140 | 0.0 | 1.0 | 0.00 | 0.00 | 0.00 | 91 | 1016.4 |
| 20260904082636 | 63 | 126 | 1.0 | 2.0 | 0.00 | 0.00 | 0.00 | 91 | 1016.5 |
| 20260904081638 | 63 | 112 | 1.0 | 2.0 | 0.00 | 0.00 | 0.00 | 90 | 1016.5 |
| 20260904080617 | 63 | 82 | 0.0 | 1.0 | 0.00 | 0.00 | 0.00 | 89 | 1016.6 |
| 20260904075617 | 63 | 98 | 1.0 | 2.0 | 0.00 | 0.00 | 0.00 | 87 | 1016.5 |
| 20260904074617 | 63 | 109 | 2.0 | 2.0 | 0.00 | 0.00 | 0.00 | 86 | 1016.5 |
| 20260904073617 | 63 | 118 | 0.0 | 1.0 | 0.00 | 0.00 | 0.00 | 84 | 1016.6 |
| 20260904072637 | 64 | 105 | 1.0 | 2.0 | 0.00 | 0.00 | 0.00 | 87 | 1016.4 |
| 20260904071617 | 64 | 124 | 1.0 | 2.0 | 0.00 | 0.00 | 0.00 | 86 | 1016.3 |
| 20260904070617 | 64 | 91 | 1.0 | 2.0 | 0.00 | 0.00 | 0.00 | 87 | 1016.2 |
| 20260904065617 | 64 | 0.0 | 0.0 | 0.00 | 0.00 | 0.00 | 88 | 1016.2 | |
| 20260904064618 | 65 | 114 | 0.0 | 1.0 | 0.00 | 0.00 | 0.00 | 89 | 1015.9 |
| 20260904063617 | 66 | 352 | 0.0 | 1.0 | 0.00 | 0.00 | 0.00 | 92 | 1015.8 |
| 20260904062616 | 66 | 340 | 1.0 | 2.0 | 0.00 | 0.00 | 0.00 | 92 | 1015.8 |
| 20260904061617 | 66 | 29 | 1.0 | 2.0 | 0.00 | 0.00 | 0.00 | 91 | 1015.7 |
| 20260904060637 | 67 | 337 | 1.0 | 2.0 | 0.00 | 0.00 | 0.00 | 91 | 1015.7 |
| 20260904055617 | 67 | 342 | 1.0 | 2.0 | 0.00 | 0.00 | 0.00 | 91 | 1015.7 |
| 20260904054617 | 67 | 346 | 1.0 | 2.0 | 0.00 | 0.00 | 0.00 | 91 | 1015.6 |
| 20260904053617 | 66 | 45 | 0.0 | 1.0 | 0.00 | 0.00 | 0.00 | 91 | 1015.5 |
| 20260904052617 | 66 | 0.0 | 0.0 | 0.00 | 0.00 | 0.00 | 90 | 1015.4 | |
| 20260904051617 | 67 | 0.0 | 0.0 | 0.00 | 0.00 | 0.00 | 89 | 1015.3 | |
| 20260904050617 | 67 | 101 | 1.0 | 1.0 | 0.00 | 0.00 | 0.00 | 88 | 1015.3 |
| 20260904045617 | 68 | 127 | 1.0 | 1.0 | 0.00 | 0.00 | 0.00 | 86 | 1015.1 |
| 20260904044617 | 70 | 223 | 1.0 | 2.0 | 0.00 | 0.00 | 0.00 | 84 | 1015.0 |
| 20260904043617 | 71 | 223 | 1.0 | 2.0 | 0.00 | 0.00 | 0.00 | 82 | 1015.0 |
| 20260904042617 | 72 | 229 | 1.0 | 3.0 | 0.00 | 0.00 | 0.00 | 81 | 1015.1 |
| 20260904041617 | 73 | 210 | 3.0 | 5.0 | 0.00 | 0.00 | 0.00 | 81 | 1015.1 |
| 20260904040618 | 73 | 221 | 2.0 | 5.0 | 0.00 | 0.00 | 0.00 | 80 | 1014.8 |
| 20260904035637 | 74 | 211 | 3.0 | 4.0 | 0.00 | 0.00 | 0.00 | 80 | 1014.9 |
| 20260904034617 | 73 | 212 | 1.0 | 3.0 | 0.00 | 0.00 | 0.00 | 82 | 1014.9 |
| 20260904033617 | 73 | 217 | 3.0 | 4.0 | 0.00 | 0.00 | 0.00 | 81 | 1014.9 |
| 20260904032617 | 74 | 216 | 3.0 | 6.0 | 0.00 | 0.00 | 0.00 | 79 | 1014.8 |
| 20260904031637 | 75 | 241 | 3.0 | 6.0 | 0.00 | 0.00 | 0.00 | 80 | 1014.8 |
| 20260904030618 | 74 | 253 | 2.0 | 5.0 | 0.00 | 0.00 | 0.00 | 79 | 1014.9 |
| 20260904025617 | 74 | 222 | 4.0 | 7.0 | 0.00 | 0.00 | 0.00 | 80 | 1014.9 |
| 20260904024617 | 74 | 226 | 2.0 | 5.0 | 0.00 | 0.00 | 0.00 | 83 | 1014.9 |
| 20260904023617 | 74 | 281 | 0.0 | 3.0 | 0.00 | 0.00 | 0.00 | 82 | 1014.8 |
| 20260904022618 | 74 | 287 | 1.0 | 7.0 | 0.00 | 0.00 | 0.00 | 82 | 1014.9 |
| 20260904021637 | 74 | 195 | 4.0 | 9.0 | 0.00 | 0.00 | 0.00 | 80 | 1014.9 |
| 20260904020637 | 76 | 240 | 4.0 | 7.0 | 0.00 | 0.00 | 0.00 | 78 | 1014.8 |
| 20260904015617 | 75 | 240 | 3.0 | 5.0 | 0.00 | 0.00 | 0.00 | 81 | 1014.9 |
| 20260904014637 | 75 | 228 | 4.0 | 7.0 | 0.00 | 0.00 | 0.00 | 81 | 1014.9 |
| 20260904013617 | 74 | 222 | 6.0 | 9.0 | 0.00 | 0.00 | 0.00 | 82 | 1014.8 |
| 20260904012617 | 74 | 208 | 3.0 | 9.0 | 0.00 | 0.00 | 0.00 | 85 | 1014.9 |
| 20260904011617 | 73 | 231 | 4.0 | 7.0 | 0.00 | 0.00 | 0.00 | 84 | 1014.8 |
| 20260904010637 | 74 | 221 | 4.0 | 8.0 | 0.00 | 0.00 | 0.00 | 83 | 1014.8 |
| 20260904005617 | 76 | 264 | 1.0 | 6.0 | 0.00 | 0.00 | 0.00 | 80 | 1014.9 |
| 20260904004637 | 77 | 223 | 4.0 | 7.0 | 0.00 | 0.00 | 0.00 | 80 | 1014.8 |
| 20260904003617 | 76 | 224 | 2.0 | 6.0 | 0.00 | 0.00 | 0.00 | 80 | 1014.9 |
| 20260904002617 | 77 | 198 | 1.0 | 6.0 | 0.00 | 0.00 | 0.00 | 80 | 1015.1 |
| 20260904001617 | 77 | 200 | 5.0 | 8.0 | 0.00 | 0.00 | 0.00 | 78 | 1015.0 |
| 20260904000617 | 77 | 294 | 2.0 | 8.0 | 0.00 | 0.00 | 0.00 | 79 | 1015.1 |
| 20260903235637 | 75 | 211 | 1.0 | 3.0 | 0.00 | 0.00 | 0.00 | 83 | 1015.2 |
| 20260903234637 | 75 | 225 | 3.0 | 4.0 | 0.00 | 0.00 | 0.00 | 78 | 1015.4 |
| 20260903233617 | 76 | 237 | 2.0 | 5.0 | 0.00 | 0.00 | 0.00 | 78 | 1015.6 |
| 20260903232637 | 77 | 263 | 1.0 | 2.0 | 0.00 | 0.00 | 0.00 | 79 | 1015.8 |
| 20260903231617 | 77 | 218 | 3.0 | 4.0 | 0.00 | 0.00 | 0.00 | 79 | 1015.8 |
| 20260903230617 | 76 | 247 | 1.0 | 2.0 | 0.00 | 0.00 | 0.00 | 80 | 1016.0 |
| 20260903225617 | 76 | 290 | 1.0 | 3.0 | 0.00 | 0.00 | 0.00 | 85 | 1016.0 |
| 20260903224617 | 75 | 265 | 0.0 | 2.0 | 0.00 | 0.00 | 0.00 | 84 | 1016.2 |
| 20260903223617 | 75 | 217 | 2.0 | 6.0 | 0.00 | 0.00 | 0.00 | 80 | 1016.4 |
| 20260903222637 | 75 | 216 | 2.0 | 4.0 | 0.00 | 0.00 | 0.00 | 82 | 1016.4 |
| 20260903221617 | 75 | 259 | 2.0 | 5.0 | 0.00 | 0.01 | 0.00 | 83 | 1016.5 |
| 20260903220617 | 74 | 201 | 1.0 | 3.0 | 0.00 | 0.01 | 0.00 | 82 | 1016.5 |
| 20260903215617 | 74 | 220 | 0.0 | 1.0 | 0.00 | 0.01 | 0.00 | 81 | 1016.6 |
| 20260903214637 | 74 | 221 | 2.0 | 4.0 | 0.00 | 0.01 | 0.00 | 82 | 1016.7 |
| 20260903213617 | 74 | 207 | 2.0 | 4.0 | 0.00 | 0.01 | 0.00 | 81 | 1016.8 |
| 20260903212617 | 74 | 207 | 2.0 | 3.0 | 0.00 | 0.01 | 0.00 | 82 | 1016.9 |
| 20260903211658 | 74 | 300 | 1.0 | 3.0 | 0.00 | 0.01 | 0.00 | 84 | 1017.0 |
| 20260903210637 | 73 | 257 | 1.0 | 3.0 | 0.00 | 0.01 | 0.00 | 83 | 1017.2 |
| 20260903205617 | 73 | 253 | 1.0 | 2.0 | 0.00 | 0.01 | 0.00 | 82 | 1017.2 |
| 20260903204617 | 73 | 238 | 1.0 | 3.0 | 0.00 | 0.01 | 0.00 | 83 | 1017.1 |
| 20260903203617 | 73 | 277 | 2.0 | 4.0 | 0.00 | 0.01 | 0.00 | 82 | 1017.0 |
| 20260903202617 | 72 | 265 | 0.0 | 1.0 | 0.00 | 0.01 | 0.00 | 83 | 1017.1 |
| 20260903201617 | 72 | 232 | 2.0 | 5.0 | 0.00 | 0.01 | 0.00 | 82 | 1017.1 |
| 20260903200617 | 72 | 286 | 1.0 | 2.0 | 0.00 | 0.01 | 0.00 | 82 | 1017.1 |
| 20260903195617 | 72 | 313 | 1.0 | 2.0 | 0.00 | 0.01 | 0.00 | 84 | 1017.2 |
| 20260903194618 | 72 | 346 | 4.0 | 5.0 | 0.00 | 0.01 | 0.00 | 82 | 1017.2 |
| 20260903193617 | 72 | 332 | 2.0 | 6.0 | 0.00 | 0.01 | 0.00 | 80 | 1017.2 |
| 20260903192616 | 72 | 309 | 2.0 | 4.0 | 0.00 | 0.01 | 0.00 | 80 | 1017.2 |